Presure
152 145 149 168 162 156 163 170 159 164 167 179 174 169 149 189 184 184 198 172 187 219 238 199 206 200 178 209 184 193 195 191 190 190 190 188 186 188 188 186 189 166 181 177 176 181 177
151 147 162 170 163 155 151 151 175 171 161 176 146 181 177 197 217 175 215 195 204 203 204 205 219 197 209 214 200 203 198 185 202 192 193 192 186 187 187 187 186 184 183 179 182 180 175
153 156 161 164 169 157 159 180 165 147 167 163 171 158 179 184 186 200 209 218 191 219 202 209 210 204 249 201 211 218 235 195 185 183 181 215 221 220 225 217 181 204 209 206 204 198 196
154 155 163 152 158 155 151 170 170 163 167 163 171 181 167 175 197 184 176 169 210 184 180 186 185 184 205 197 221 223 223 223 215 201 204 174 172 193 191 192 188 189 189 176 192 200 184
152 158 154 136 154 168 153 157 167 167 171 167 162 163 175 155 179 188 182 172 165 177 163 178 172 176 178 182 188 195 206 210 211 213 221 213 234 165 158 165 187 182 184 188 197 198 188
152 153 164 158 161 166 156 160 161 163 169 164 166 159 173 139 165 152 134 160 167 179 173 159 159 158 166 164 171 172 172 178 181 192 199 199 203 209 208 218 202 198 180 180 174 172 172
150 151 154 157 163 166 152 162 158 162 171 165 160 168 180 182 162 167 178 177 165 157 167 151 188 182 184 172 176 178 189 187 187 181 178 184 174 184 188 199 203 212 223 204 187 183 173
159 142 154 161 158 160 146 161 148 151 157 155 162 178 189 152 164 157 159 164 174 156 170 173 174 170 181 177 178 172 164 182 167 184 189 181 191 181 188 188 186 188 192 209 213 210 181
157 156 151 155 157 150 146 157 158 157 158 158 160 167 159 163 167 151 159 147 154 164 154 187 185 188 185 172 159 163 182 169 168 181 183 189 178 185 186 188 185 196 186 183 188 184 198
167 154 149 151 152 145 157 162 168 155 147 159 154 167 180 165 163 166 152 145 170 151 172 170 169 168 162 168 181 163 177 187 203 200 194 204 200 210 209 196 189 174 183 192 192 189 163
154 156 153 149 152 147 161 153 158 148 160 144 157 170 174 158 153 153 149 155 165 166 163 181 184 203 197 156 167 200 201 190 196 198 206 205 220 195 222 223 148 173 186 195 194 192 195
154 145 153 154 158 161 164 156 155 150 150 151 163 157 149 161 158 160 147 159 172 172 174 183 192 196 178 195 195 200 208 206 212 210 218 221 232 234 221 225 243 217 236 209 207 203 199
151 148 161 146 163 162 150 155 158 153 144 148 147 155 147 154 151 155 167 181 167 180 183 203 204 176 195 202 207 219 240 269 269 276 293 264 292 291 281 286 241 221 220 218 229 241 228
156 156 138 159 155 158 153 146 139 160 162 149 138 145 156 156 144 179 183 178 173 166 198 197 195 194 204 205 211 236 267 271 415 417 399 404 471 477 444 420 405 392 292 225 221 220 180
155 145 167 152 164 140 162 160 163 153 135 141 142 146 167 148 147 163 187 159 167 169 209 192 165 240 252 254 272 390 402 373 356 384 390 389 387 66 355 347 367 402 383 371 363 231 242
155 157 158 147 150 159 154 157 164 161 164 144 152 155 156 168 193 189 176 170 202 204 194 197 233 234 264 389 398 361 367 406 396 392 376 370 380 369 354 334 335 339 348 378 374 358 353
161 151 158 151 158 165 144 165 140 142 153 156 161 169 167 165 192 160 192 208 219 200 212 219 262 275 356 378 397 397 376 366 352 339 337 352 370 142 345 334 321 323 332 334 332 419 369
148 154 149 168 162 127 169 150 145 145 149 144 154 139 162 167 151 165 211 168 202 231 209 264 285 383 375 404 390 380 351 352 404 397 391 377 373 364 343 333 325 308 301 310 313 325 367
161 148 166 135 160 164 164 136 149 164 149 184 140 163 209 170 196 201 165 223 219 202 262 334 373 400 394 379 415 363 368 393 385 378 375 364 359 356 350 336 334 319 301 297 306 305 314
153 172 151 154 165 167 155 167 155 144 178 147 160 180 171 169 206 219 214 236 236 243 343 369 385 402 391 385 371 381 391 381 375 366 360 360 353 349 353 340 335 338 313 291 289 291 296
171 147 170 144 135 140 147 151 187 169 170 207 165 147 201 181 220 218 214 232 233 373 377 409 416 399 390 406 394 387 383 366 355 354 351 350 349 380 380 399 406 331 330 307 280 282 284
145 171 152 163 140 143 150 151 188 177 193 175 167 177 195 202 214 221 225 235 311 380 424 410 406 390 398 408 395 387 374 362 350 340 343 346 370 370 344 352 383 388 406 424 304 282 280
153 175 171 134 135 134 155 169 158 178 165 195 195 189 208 195 220 225 245 363 397 423 408 393 409 424 381 394 377 369 362 355 343 335 334 361 353 335 347 368 382 381 384 390 391 365 302
157 152 160 133 159 174 166 169 191 150 168 147 185 212 198 212 208 222 362 443 431 414 405 410 410 406 388 396 376 361 353 344 337 324 334 345 332 328 330 345 342 351 349 339 356 356 347
154 156 137 156 162 201 152 152 161 185 174 208 183 198 213 223 215 238 436 443 437 410 404 386 401 381 395 383 370 353 342 337 331 322 323 328 327 327 320 318 332 328 325 324 317 327 338
145 135 157 170 158 201 141 197 191 165 205 193 198 202 204 227 237 428 451 440 421 399 418 407 399 392 384 369 361 354 347 336 327 326 321 322 321 315 308 307 302 301 332 327 314 313 322
141 158 175 154 208 168 180 200 183 203 211 205 195 198 213 220 297 459 439 427 408 402 372 420 398 388 375 364 362 356 347 340 333 324 315 314 314 311 313 310 313 306 308 314 318 319 318
169 174 191 177 194 183 191 166 197 202 203 219 197 211 210 244 453 449 432 408 388 376 363 407 401 386 381 374 364 356 348 340 337 332 323 316 311 310 309 310 311 305 304 318 317 312 312
170 162 190 174 153 190 189 198 188 181 205 215 199 220 233 250 397 443 424 408 394 375 357 349 338 331 381 377 369 360 354 346 339 335 326 325 320 317 310 305 306 307 307 312 309 303 308
Wind_Speed
23 30 26 33 26 24 30 38 28 30 31 43 34 35 23 35 28 29 34 36 26 28 30 41 48 54 54 63 62 64 70 70 72 74 76 79 80 82 81 82 83 83 84 87 88 87 86
25 23 33 38 27 30 26 27 41 37 28 43 37 45 38 47 40 33 33 38 34 34 32 29 37 50 51 57 65 67 69 69 80 81 82 83 82 83 81 85 86 86 86 87 87 88 89
33 32 37 36 39 26 33 45 41 36 44 35 46 37 45 46 38 43 36 33 40 35 39 41 39 38 37 54 54 57 53 72 70 73 76 80 80 84 80 87 85 94 88 86 85 88 91
36 37 46 31 35 29 32 47 47 43 47 45 47 51 43 44 50 38 37 39 39 44 41 43 43 40 48 47 50 49 55 59 69 76 76 75 75 84 84 85 83 85 84 81 79 88 92
34 40 41 32 38 49 39 43 51 48 51 47 44 46 54 46 50 48 44 44 44 50 45 48 48 50 51 53 55 56 58 59 60 63 66 73 68 75 77 82 89 88 84 87 85 86 92
38 39 47 45 48 48 41 47 48 51 53 48 52 49 59 39 52 46 42 47 48 53 54 48 51 56 59 56 63 61 61 66 66 67 68 72 73 76 77 83 82 94 86 88 85 91 98
38 40 43 44 48 51 42 53 49 53 58 55 54 64 67 66 57 57 62 61 58 56 64 54 65 61 64 69 69 73 72 76 79 78 80 81 76 76 85 86 86 87 85 90 95 99 99
42 33 44 51 50 51 42 53 48 49 53 54 64 73 69 57 63 61 60 66 70 65 72 75 76 79 75 76 77 71 73 79 80 83 91 88 87 93 93 92 92 90 89 85 91 97 98
44 45 43 48 52 46 46 56 56 56 59 62 67 72 66 70 71 65 74 59 70 83 69 79 81 84 84 89 66 74 86 89 82 83 94 93 94 97 101 103 99 98 92 91 97 100 102
47 43 41 47 49 47 58 61 64 57 57 66 65 75 77 78 80 83 73 54 87 68 95 98 98 95 88 91 93 79 105 107 102 101 105 100 98 105 108 111 109 91 108 107 107 109 90
44 49 45 45 53 51 60 57 61 58 67 64 71 78 73 79 78 78 61 83 97 100 85 106 102 92 95 82 99 104 108 106 112 112 114 110 108 102 107 114 90 92 110 115 112 107 112
47 38 52 54 59 61 64 62 63 66 64 68 78 75 70 86 86 87 71 91 91 110 110 101 102 101 100 111 115 115 115 122 122 121 122 119 117 120 116 114 122 117 122 118 123 125 119
45 45 57 50 62 60 56 64 67 67 67 71 72 77 77 84 85 75 104 94 108 112 105 97 102 106 114 116 119 122 126 126 126 127 122 117 114 115 118 119 118 124 121 118 127 131 129
48 53 48 60 53 59 60 62 68 74 79 76 67 79 85 93 77 98 102 107 114 112 106 113 116 119 121 123 122 125 126 123 78 75 79 73 54 65 72 78 83 82 123 128 124 124 110
49 48 61 53 65 63 71 69 73 71 65 67 79 86 101 87 85 105 99 104 114 119 110 116 117 119 128 129 127 92 82 87 87 75 71 71 64 9 75 79 71 70 76 80 84 137 139
53 58 57 55 61 69 65 72 76 79 84 83 91 97 97 89 101 106 118 123 109 113 116 126 124 120 133 105 89 95 84 65 63 62 65 64 59 61 67 75 73 72 70 73 79 82 85
59 54 59 58 66 70 62 77 75 79 83 91 96 99 109 101 104 108 117 116 118 123 122 128 138 136 112 98 80 70 69 66 65 64 65 63 59 22 61 68 68 67 67 69 70 59 80
51 57 56 69 66 55 77 73 80 80 91 89 100 81 97 115 95 117 119 123 124 131 130 145 138 106 102 75 71 66 68 66 47 48 48 54 56 55 57 63 63 69 74 69 69 66 60
61 56 67 64 68 74 77 73 83 90 95 91 86 107 109 123 115 116 124 127 129 129 148 129 113 88 79 75 56 65 59 42 44 46 43 45 46 50 47 56 61 64 69 73 70 66 70
57 66 57 66 72 76 77 85 88 90 93 95 91 107 122 126 119 120 123 139 139 141 127 116 95 77 72 63 65 53 41 40 40 42 42 40 37 44 43 46 56 53 62 72 70 70 70
64 58 69 66 70 73 84 88 91 96 101 100 112 97 116 124 130 131 130 140 137 119 110 81 66 67 64 46 42 38 37 37 40 39 39 39 34 27 24 21 24 47 52 62 73 70 67
56 68 63 73 77 82 83 95 91 97 93 107 120 118 113 121 131 141 142 146 144 110 72 68 62 61 51 39 37 30 34 36 30 36 36 35 20 19 27 27 25 21 18 21 61 69 70
58 71 71 65 68 79 93 92 97 100 105 105 113 122 118 124 141 143 154 127 99 71 69 68 57 40 49 35 34 32 31 28 26 28 32 22 21 20 18 16 14 10 5 14 30 49 66
67 64 71 70 84 87 88 85 92 98 110 98 115 119 121 126 129 142 113 67 64 64 63 54 46 43 42 31 26 30 27 27 24 30 28 22 19 20 19 12 3 7 14 18 19 34 53
63 66 75 81 88 90 77 102 109 102 111 118 120 122 130 140 132 150 75 63 55 57 49 57 42 46 35 30 26 25 29 28 27 28 29 23 21 20 18 18 15 17 20 24 34 33 32
69 72 82 83 90 86 86 103 103 106 123 116 118 126 130 147 156 83 61 59 56 54 41 40 38 36 34 31 30 27 25 24 29 29 29 27 24 24 24 25 25 26 25 34 40 43 43
74 77 79 82 99 90 97 107 104 120 123 120 120 126 138 140 141 59 57 53 52 48 50 33 32 32 32 32 30 29 28 27 25 28 31 31 29 29 28 28 28 30 31 33 35 39 43
78 79 86 82 89 92 100 104 114 122 123 135 125 138 136 157 59 55 54 53 52 50 48 33 31 30 29 27 26 25 25 27 28 28 29 33 34 34 34 34 32 33 36 39 41 40 42
79 76 83 81 98 94 103 113 107 111 129 134 129 143 152 152 70 51 50 47 47 44 43 43 41 39 28 25 24 24 23 23 25 26 28 31 34 36 37 37 38 38 39 40 42 42 43
Wind_Direction
321 316 322 344 333 322 347 347 333 341 338 346 339 337 300 337 320 315 317 277 281 305 295 274 271 268 260 260 265 262 262 264 263 261 261 261 261 260 260 262 263 265 260 263 266 269 269
314 314 333 339 336 330 314 310 346 343 324 345 304 346 336 340 339 308 324 311 306 305 298 287 283 269 269 268 267 264 262 264 261 264 264 261 263 265 265 264 265 264 264 265 267 268 268
310 322 331 336 342 324 329 345 337 318 341 329 339 317 338 337 336 331 327 321 308 306 306 303 303 289 296 277 273 272 272 266 265 266 267 262 264 265 265 264 265 262 262 263 267 266 265
313 318 329 322 333 325 320 340 339 336 338 332 337 338 327 332 332 326 318 311 319 306 303 309 303 291 294 291 287 280 274 275 268 269 269 270 271 271 271 269 268 267 266 267 262 260 267
315 320 324 298 327 330 324 331 337 332 334 332 326 324 329 309 328 326 320 309 306 309 301 306 301 298 295 295 294 290 288 284 280 276 273 272 272 270 273 271 266 266 265 264 264 262 266
313 316 317 322 325 328 326 330 330 329 331 326 331 317 326 313 316 304 296 304 307 313 305 300 300 298 297 292 293 288 287 287 283 279 276 274 273 274 273 267 264 259 269 266 268 265 267
306 311 313 319 322 329 323 327 326 328 331 329 322 327 325 323 315 315 318 316 309 305 306 301 307 301 296 295 292 291 285 284 283 287 285 283 280 274 270 271 268 266 261 257 261 260 264
303 306 313 318 322 325 313 326 322 318 324 319 325 327 325 314 316 313 314 315 313 311 310 312 309 307 303 301 300 298 293 291 293 283 279 284 278 279 277 275 271 267 266 266 259 257 256
302 304 309 316 319 317 315 322 322 322 324 324 324 323 316 318 320 316 318 302 315 315 313 308 306 303 301 305 301 300 295 299 290 274 286 279 273 278 276 272 276 271 271 268 264 264 262
294 300 311 314 316 312 317 317 319 319 313 321 316 322 325 320 320 318 313 311 312 314 311 310 311 311 309 306 299 295 301 295 282 278 283 274 274 269 269 271 274 263 270 267 264 265 255
302 302 312 310 313 311 315 314 316 311 318 310 318 322 319 315 315 316 310 314 312 313 315 307 307 300 298 300 302 291 286 284 290 288 284 283 275 281 269 267 279 255 270 271 269 270 266
299 310 310 310 311 312 312 314 314 314 312 315 320 317 316 317 314 312 315 312 314 308 307 308 305 303 304 296 296 292 289 290 285 287 282 281 280 272 275 268 260 265 259 259 261 261 264
302 306 303 306 307 312 309 314 315 314 309 312 312 316 312 311 312 317 308 312 308 304 308 302 301 307 299 296 294 291 294 294 290 289 281 281 277 274 269 265 262 262 261 262 257 253 257
303 302 300 305 310 312 311 305 308 316 314 310 315 313 312 311 316 306 305 305 307 311 304 304 302 301 297 297 296 299 297 293 290 287 284 279 268 261 261 261 262 262 257 255 259 258 260
303 305 297 307 308 303 313 313 313 309 313 316 311 310 311 314 319 312 309 314 310 309 303 302 309 311 311 306 305 302 301 297 293 289 283 279 275 291 266 265 265 253 255 253 253 253 251
301 299 303 304 305 312 307 314 315 314 313 309 309 310 310 320 313 307 304 309 307 307 308 308 308 306 311 309 309 306 303 297 293 288 286 282 276 268 263 261 259 260 257 249 248 249 251
296 304 305 306 307 312 314 315 308 308 311 311 310 310 306 309 317 314 312 311 310 307 306 310 316 314 314 313 310 307 304 300 297 294 290 285 276 264 262 259 256 257 256 253 251 246 246
300 305 304 305 311 315 314 305 306 315 309 311 309 320 308 309 318 314 316 313 309 320 309 318 316 316 316 314 311 308 305 303 293 287 282 279 277 270 262 259 253 249 252 252 249 244 223
296 303 301 303 313 314 312 311 307 312 308 311 319 310 327 305 316 313 315 319 315 312 321 318 317 317 315 313 310 310 308 299 295 290 286 280 277 273 263 259 253 246 246 247 247 249 245
301 300 301 304 312 311 310 313 309 308 309 315 313 306 304 308 317 320 315 326 322 322 320 318 318 316 315 315 313 313 306 303 299 295 293 288 284 275 272 257 258 251 242 244 245 244 245
300 295 310 297 307 308 306 310 312 309 311 331 305 322 324 313 329 324 318 325 322 320 319 317 318 315 314 312 310 306 302 301 302 298 295 293 289 284 293 297 287 251 247 241 242 241 241
295 308 306 309 307 307 315 307 310 303 323 305 307 306 320 318 328 328 325 325 323 318 319 318 317 316 315 310 310 306 301 298 294 290 294 295 287 289 281 283 288 282 265 237 240 240 239
303 307 311 313 317 316 309 309 310 305 318 321 325 318 321 318 330 326 327 318 320 320 320 317 318 318 315 310 308 302 302 300 295 293 295 286 294 287 293 309 298 237 224 225 221 225 237
306 307 314 313 312 316 315 317 319 318 308 321 314 326 323 327 324 327 327 323 321 321 318 317 315 318 319 313 309 301 299 298 298 296 296 281 286 285 289 289 280 255 205 216 226 230 233
308 311 310 312 313 317 318 312 306 323 327 330 317 321 328 332 327 329 323 324 321 320 315 318 315 316 312 313 307 296 295 295 292 288 293 286 277 280 281 277 261 251 221 222 232 236 242
300 310 309 313 307 327 321 334 331 319 333 322 328 325 326 333 332 327 330 328 326 324 319 316 314 312 313 311 305 299 288 283 283 287 288 285 279 271 265 265 262 263 240 228 235 239 243
304 309 312 308 330 325 313 336 324 336 334 331 324 326 331 332 335 334 332 329 328 326 326 316 316 312 314 311 304 299 295 289 276 276 281 285 280 278 272 267 264 264 261 258 255 249 251
313 314 319 319 333 324 334 313 333 334 333 337 327 332 330 336 339 339 337 337 337 335 334 330 323 321 317 314 310 304 297 291 286 281 275 275 278 278 277 276 270 258 260 259 256 256 256
313 305 327 316 310 331 330 337 329 319 336 335 330 333 335 337 340 348 347 347 345 344 339 337 335 334 330 324 319 312 305 296 289 282 280 274 274 275 278 278 276 273 269 263 260 259 259